Location: Ravensburg
(47.7866°N, 9.6124°E)
Time: 00:48:47
(UTC+02:00)

AO-73 - Pass Details

Date: 19 March 2026
Orbit: 514 x 567 km, 97.8° (Epoch: 12 April)

Event Time Altitude Azimuth Distance (km) Brightness Sun altitude
Rises 03:03:52 0° 31° (NNE) 2,656 ? -32.2°
Reaches altitude 10° 03:06:49 10° 56° (NE) 1,755 ? -31.8°
Enters shadow 03:08:51 14° 89° (E) 1,485 ? -31.6°
